Location: Les Gen�tes
(46.3104°N, 1.5969°E)
Time: 22:45:07
(UTC+00:00)

Abrixas rocket - Pass Details

Date: 01 June 2020
Orbit: 342 x 347 km, 48.4° (Epoch: 13 July)

Event Time Altitude Azimuth Distance (km) Brightness Sun altitude
Rises 22:21:19 0° 281° (W) 2,165 6.3 -18.5°
Reaches altitude 10° 22:23:46 10° 260° (W) 1,317 4.9 -18.6°
Enters shadow 22:24:24 13° 249° (WSW) 1,153 4.5 -18.7°
